This is the latest recevied weather packets stored in our database for station/object KO5MO-10. If no packets are shown the sender has not sent any weather packets the latest 10 day(s).
| Time | Temp. | Humidity | Pressure | Rain* | Wind** | Luminosity | Snow |
|---|---|---|---|---|---|---|---|
| 1777620324 | 23.33° C | 28% | 1004.7 hPa | - | - | - | - |
| 1777619423 | 23.33° C | 27% | 1004.5 hPa | - | - | - | - |
| 1777618523 | 23.33° C | 27% | 1003.9 hPa | - | - | - | - |
| 1777617623 | 23.89° C | 26% | 1004.1 hPa | - | - | - | - |
| 1777616723 | 23.89° C | 24% | 1003.8 hPa | - | - | - | - |
| 1777615823 | 23.89° C | 24% | 1003.6 hPa | - | - | - | - |
| 1777614922 | 23.89° C | 24% | 1003.6 hPa | - | - | - | - |
| 1777614022 | 24.44° C | 24% | 1003.4 hPa | - | - | - | - |
| 1777613122 | 24.44° C | 24% | 1003.2 hPa | - | - | - | - |
| 1777612222 | 24.44° C | 23% | 1003 hPa | - | - | - | - |
| 1777611322 | 25° C | 23% | 1002.7 hPa | - | - | - | - |
| 1777610422 | 25° C | 22% | 1002.5 hPa | - | - | - | - |
| 1777609521 | 25.56° C | 21% | 1002.3 hPa | - | - | - | - |
| 1777608621 | 26.11° C | 20% | 1002.1 hPa | - | - | - | - |
| 1777607721 | 26.67° C | 18% | 1001.9 hPa | - | - | - | - |
| 1777606821 | 27.78° C | 16% | 1001.4 hPa | - | - | - | - |
| 1777605921 | 27.78° C | 14% | 1000.9 hPa | - | - | - | - |
| 1777605020 | 28.33° C | 14% | 1000.7 hPa | - | - | - | - |
| 1777604120 | 28.33° C | 14% | 1000.5 hPa | - | - | - | - |
| 1777603220 | 28.89° C | 14% | 1000.3 hPa | - | - | - | - |
| 1777602319 | 28.89° C | 14% | 1000.2 hPa | - | - | - | - |
| 1777601419 | 29.44° C | 14% | 1000.3 hPa | - | - | - | - |
| 1777600519 | 29.44° C | 14% | 1000.2 hPa | - | - | - | - |
| 1777599618 | 30° C | 14% | 1000.1 hPa | - | - | - | - |
| 1777598718 | 30° C | 15% | 1000.1 hPa | - | - | - | - |
* Rain since midnight (hover to see other rain measurements)
** Current wind speed in m/s (hover to see current wind gust speed)